Regional Weather Roundup
Issued by NWS

Home | Current Version | Previous Version | Text Only | Print | Product List | Glossary Off
Versions: 1 2 3 4 5 6 7 8 9 10 11 12 13 14 15 16 17 18 19 20 21 22 23 24 25 26 27 28 29 30 31 32 33 34 35 36 37 38 39 40 41 42 43 44 45 46 47 48 49 50

000
ASUS45 KPSR 240000
RWRAZ

PRELIMINARY ARIZONA REGIONAL HOURLY WEATHER ROUNDUP
NATIONAL WEATHER SERVICE PHOENIX AZ
500 PM MST WED APR 23 2014

NOTE: FAIR INDICATES FEW OR NO CLOUDS BELOW 12,000 FEET WITH NO
SIGNIFICANT WEATHER AND/OR OBSTRUCTIONS TO VISIBILITY.

AZZ001>003-036-240100-
NORTHWEST ARIZONA

CITY           SKY/WX    TMP DP  RH WIND       PRES   REMARKS
KINGMAN        SUNNY     71   7   8 N13G21    29.91F
6HR MIN TEMP:  65; 6HR MAX TEMP:  72;

$$

AZZ004>008-015-016-018-240100-
NORTH CENTRAL ARIZONA

CITY           SKY/WX    TMP DP  RH WIND       PRES   REMARKS
GRAND CANYON   SUNNY     58  13  17 W9G18     30.00R
6HR MIN TEMP:  52; 6HR MAX TEMP:  59;

WILLIAMS       SUNNY     59   5  11 W12       30.06R
PRESCOTT       SUNNY     70   7   8 NW10G21   29.92S
6HR MIN TEMP:  63; 6HR MAX TEMP:  71;

FLAGSTAFF      SUNNY     58   5  12 W12G30    29.99R
6HR MIN TEMP:  54; 6HR MAX TEMP:  61;

PAYSON         SUNNY     68  10  10 SW8G18    29.95R
PAGE           SUNNY     68  12  11 CALM      29.88S
6HR MIN TEMP:  58; 6HR MAX TEMP:  69;

$$

AZZ009>014-017-240100-
NORTHEAST ARIZONA

CITY           SKY/WX    TMP DP  RH WIND       PRES   REMARKS
WINSLOW        NOT AVBL
SAINT JOHNS    MOSUNNY   68  10  10 W31G38    29.88R
6HR MIN TEMP:  65; 6HR MAX TEMP:  71;

WINDOW ROCK    MOSUNNY   61   5  10 W22G30    29.94R
6HR MIN TEMP:  58; 6HR MAX TEMP:  65;

SHOW LOW       SUNNY     63  10  13 W13G25    29.97R
$$

AZZ023-240100-
GREATER PHOENIX AREA

CITY           SKY/WX    TMP DP  RH WIND       PRES   REMARKS
PHOENIX        MOSUNNY   85   9   5 W6        29.76F
6HR MIN TEMP:  78; 6HR MAX TEMP:  86;

GLENDALE       MOSUNNY   86   9   5 S14G21    29.77F
LUKE AFB       NOT AVBL
6HR MIN TEMP:  77; 6HR MAX TEMP:  86;

DEER VALLEY    SUNNY     83   7   5 SW14      29.76F
6HR MIN TEMP:  73; 6HR MAX TEMP:  85;

SCOTTSDALE     SUNNY     83  13   7 S9        29.79S
6HR MIN TEMP:  75; 6HR MAX TEMP:  84;

MESA-FALCON    MOSUNNY   82  10   6 W10       29.79
MESA-GATEWAY   MOSUNNY   84  14   7 W13G18    29.80F
CHANDLER       MOSUNNY   84  12   6 W13G21    29.79S
$$

AZZ027-028-240100-
SOUTHWEST MARICOPA COUNTY AND PINAL COUNTY

CITY           SKY/WX    TMP DP  RH WIND       PRES   REMARKS
CASA GRANDE    SUNNY     82  19   9 W12       29.81S
6HR MIN TEMP:  79; 6HR MAX TEMP:  84;

GILA BEND      PTCLDY    84  14   7 W8G20     29.80F
$$

AZZ503-504-507>509-240100-
SOUTHEAST ARIZONA

CITY           SKY/WX    TMP DP  RH WIND       PRES   REMARKS
TUCSON         MOSUNNY   83  14   7 W15       29.85R
6HR MIN TEMP:  81; 6HR MAX TEMP:  86;

DAVIS-MONTHAN  MOSUNNY   82  18   9 W15G22    29.83S
6HR MIN TEMP:  80; 6HR MAX TEMP:  84;

RYAN FIELD       N/A     82  21  10 MISG      29.84
NOGALES        MOSUNNY   79  22  12 SW13G20   29.89S
6HR MIN TEMP:  76; 6HR MAX TEMP:  82;

SIERRA VISTA   PTSUNNY   75  21  13 W18G26    29.92R
SAFFORD        SUNNY     81  15   8 NW25G36   29.78R
6HR MIN TEMP:  77; 6HR MAX TEMP:  86;

$$

AZZ020-021-025-026-031-240100-
SOUTHWEST ARIZONA

CITY           SKY/WX    TMP DP  RH WIND       PRES   REMARKS
YUMA           NOT AVBL
$$

CAZ031-033-041-043-047-048-061-240100-
SOUTHERN CALIFORNIA

CITY           SKY/WX    TMP DP  RH WIND       PRES   REMARKS
DOWNTOWN L.A.  SUNNY     70  36  28 MISG      29.90F
6HR MIN TEMP:  67; 6HR MAX TEMP:  71;

L.A. AIRPORT   PTSUNNY   67  44  43 SW12      29.92F
6HR MIN TEMP:  65; 6HR MAX TEMP:  68;

SAN DIEGO      PTSUNNY   68  52  56 NW12      29.93F
6HR MIN TEMP:  65; 6HR MAX TEMP:  71;

BURBANK        SUNNY     70  34  26 S9        29.90F
6HR MIN TEMP:  65; 6HR MAX TEMP:  72;

ONTARIO        PTSUNNY   74  46  36 W14G21    29.89F
6HR MIN TEMP:  63; 6HR MAX TEMP:  76;

RIVERSIDE      MOSUNNY   74  45  35 W10       29.88F
6HR MIN TEMP:  64; 6HR MAX TEMP:  76;

PALM SPRINGS   SUNNY     86  14   7 W7        29.81F
6HR MIN TEMP:  76; 6HR MAX TEMP:  87;

EL CENTRO NAS  MOSUNNY   86  14   7 VRB3      29.80S
6HR MIN TEMP:  79; 6HR MAX TEMP:  87;

IMPERIAL       SUNNY     85  15   7 VRB3      29.79F
6HR MIN TEMP:  78; 6HR MAX TEMP:  86;

BLYTHE         SUNNY     86  13   6 N6        29.79F
6HR MIN TEMP:  78; 6HR MAX TEMP:  88;

$$

NVZ020-UTZ003-240100-
SOUTHERN NEVADA-UTAH

CITY           SKY/WX    TMP DP  RH WIND       PRES   REMARKS
LAS VEGAS      NOT AVBL
SALT LAKE CITY SUNNY     52  18  26 NW7       30.05S
6HR MIN TEMP:  46; 6HR MAX TEMP:  52; 6HR PCP: TRACE;

$$

NMZ009-TXZ055-240100-
NEW MEXICO-WEST TEXAS

CITY           SKY/WX    TMP DP  RH WIND       PRES   REMARKS
ALBUQUERQUE    CLOUDY    69  11  10 W30G39    29.78R
6HR MIN TEMP:  69; 6HR MAX TEMP:  77;

EL PASO        MOSUNNY   84  18   8 W28G35    29.74F
6HR MIN TEMP:  79; 6HR MAX TEMP:  86;

$$


........................KEY........................
SKY/WX - SKY CONDITION/WEATHER
TMP    - TEMPERATURE IN FAHRENHEIT
DP     - DEW POINT IN FAHRENHEIT
RH     - RELATIVE HUMIDITY IN PERCENT
WIND   - DIRECTION AND SPEED IN MILES PER HOUR (MPH)
VRB    - VARIABLE WIND DIRECTION
PRES   - MEAN SEA LEVEL PRESSURE IN INCHES OF MERCURY
         F - FALLING PRESSURE   R - RISING PRESSURE
         S - STEADY PRESSURE
VSB    - VISIBILITY IN MILES
HX     - HEAT INDEX IN FAHRENHEIT
WCI    - WIND CHILL INDEX IN FAHRENHEIT
TC     - TEMPERATURE IN CELSIUS WHICH IS ALSO KNOWN AS
         TEMPERATURE IN CENTIGRADE
AFB    - AIR FORCE BASE
         LUKE AFB IS LUKE AIR FORCE BASE
         DAVIS-MONTHAN IS DAVIS-MONTHAN AIR FORCE BASE
NAS    - NAVAL AIR STATION
         EL CENTRO NAS IS EL CENTRO NAVAL AIR STATION
N/A    - NOT AVAILABLE



USA.gov is the U.S. government's official web portal to all federal, state and local government web resources and services.